Time,TemperatureF,DewpointF,PressureIn,WindDirection,WindDirectionDegrees,WindSpeedMPH,WindSpeedGustMPH,Humidity,HourlyPrecipIn,Conditions,Clouds,dailyrainin,SoftwareType,DateUTC
2013-08-19 00:01:00,63.5,58.2,30.02,WSW,243,0.0,1.0,83,0.00,,,0.00,WeatherCatV1.21B27,2013-08-19 04:01:00,
2013-08-19 00:06:00,63.5,58.2,30.02,WSW,243,0.0,0.0,83,0.00,,,0.00,WeatherCatV1.21B27,2013-08-19 04:06:00,
2013-08-19 00:11:00,63.5,58.2,30.02,WSW,244,0.0,0.0,83,0.00,,,0.00,WeatherCatV1.21B27,2013-08-19 04:11:00,
2013-08-19 00:16:00,63.5,58.2,30.02,WSW,244,0.0,0.0,83,0.00,,,0.00,WeatherCatV1.21B27,2013-08-19 04:16:00,
2013-08-19 00:21:00,63.4,58.1,30.02,WSW,244,0.0,0.0,83,0.00,,,0.00,WeatherCatV1.21B27,2013-08-19 04:21:00,
2013-08-19 00:26:00,63.4,58.1,30.02,WSW,244,0.0,1.0,83,0.00,,,0.00,WeatherCatV1.21B27,2013-08-19 04:26:00,
2013-08-19 00:31:00,63.5,58.2,30.02,WSW,244,0.0,0.0,83,0.00,,,0.00,WeatherCatV1.21B27,2013-08-19 04:31:00,
2013-08-19 00:36:00,63.5,57.9,30.02,WSW,244,0.0,2.0,82,0.00,,,0.00,WeatherCatV1.21B27,2013-08-19 04:36:00,
2013-08-19 00:41:00,63.5,57.9,30.02,West,261,0.0,0.0,82,0.00,,,0.00,WeatherCatV1.21B27,2013-08-19 04:41:00,
2013-08-19 00:46:00,63.5,57.9,30.02,West,261,0.0,1.0,82,0.00,,,0.00,WeatherCatV1.21B27,2013-08-19 04:46:00,
2013-08-19 00:51:00,63.5,57.9,30.02,West,259,0.0,2.0,82,0.00,,,0.00,WeatherCatV1.21B27,2013-08-19 04:51:00,
2013-08-19 00:56:00,63.5,57.9,30.01,West,259,0.0,0.0,82,0.00,,,0.00,WeatherCatV1.21B27,2013-08-19 04:56:00,
2013-08-19 01:01:00,63.4,57.8,30.01,West,259,0.0,0.0,82,0.00,,,0.00,WeatherCatV1.21B27,2013-08-19 05:01:00,
2013-08-19 01:06:00,63.4,57.8,30.01,SW,229,0.0,0.0,82,0.00,,,0.00,WeatherCatV1.21B27,2013-08-19 05:06:00,
2013-08-19 01:11:00,63.3,57.7,30.01,West,260,0.0,0.0,82,0.00,,,0.00,WeatherCatV1.21B27,2013-08-19 05:11:00,
2013-08-19 01:16:00,63.3,57.7,30.01,WNW,283,0.0,0.0,82,0.00,,,0.00,WeatherCatV1.21B27,2013-08-19 05:16:00,
2013-08-19 01:21:00,63.2,57.6,30.01,WNW,283,0.0,0.0,82,0.00,,,0.00,WeatherCatV1.21B27,2013-08-19 05:21:00,
2013-08-19 01:26:00,63.1,57.5,30.01,WNW,283,0.0,0.0,82,0.00,,,0.00,WeatherCatV1.21B27,2013-08-19 05:26:00,
2013-08-19 01:31:00,63.0,57.8,30.00,WNW,282,0.0,0.0,83,0.00,,,0.00,WeatherCatV1.21B27,2013-08-19 05:31:00,
2013-08-19 01:36:00,62.9,57.7,30.00,SW,236,0.0,4.0,83,0.00,,,0.00,WeatherCatV1.21B27,2013-08-19 05:36:00,
2013-08-19 01:41:00,62.7,57.5,30.00,WSW,256,0.0,0.0,83,0.00,,,0.00,WeatherCatV1.21B27,2013-08-19 05:41:00,
2013-08-19 01:46:00,62.6,57.4,30.00,SW,219,0.0,0.0,83,0.00,,,0.00,WeatherCatV1.21B27,2013-08-19 05:46:00,
2013-08-19 01:51:00,62.5,57.6,30.00,WSW,244,0.0,2.0,84,0.00,,,0.00,WeatherCatV1.21B27,2013-08-19 05:51:00,
2013-08-19 01:56:00,62.4,57.5,30.00,WSW,244,0.0,0.0,84,0.00,,,0.00,WeatherCatV1.21B27,2013-08-19 05:56:00,
2013-08-19 02:01:00,62.2,57.3,30.00,SW,227,0.0,3.0,84,0.00,,,0.00,WeatherCatV1.21B27,2013-08-19 06:01:00,
2013-08-19 02:06:00,62.2,57.3,30.00,WSW,254,0.0,0.0,84,0.00,,,0.00,WeatherCatV1.21B27,2013-08-19 06:06:00,
2013-08-19 02:11:00,62.2,57.6,30.00,SW,226,0.0,0.0,85,0.00,,,0.00,WeatherCatV1.21B27,2013-08-19 06:11:00,
2013-08-19 02:16:00,62.1,57.2,30.00,WSW,238,1.0,4.0,84,0.00,,,0.00,WeatherCatV1.21B27,2013-08-19 06:16:00,
2013-08-19 02:21:00,62.0,57.4,30.00,WSW,238,0.0,2.0,85,0.00,,,0.00,WeatherCatV1.21B27,2013-08-19 06:21:00,
2013-08-19 02:26:00,62.0,57.4,29.99,WSW,244,0.0,0.0,85,0.00,,,0.00,WeatherCatV1.21B27,2013-08-19 06:26:00,
2013-08-19 02:31:00,62.0,57.1,29.99,West,265,1.0,4.0,84,0.00,,,0.00,WeatherCatV1.21B27,2013-08-19 06:31:00,
2013-08-19 02:36:00,62.0,57.1,29.99,WSW,254,0.0,4.0,84,0.00,,,0.00,WeatherCatV1.21B27,2013-08-19 06:36:00,
2013-08-19 02:41:00,62.0,57.4,29.99,WSW,256,0.0,1.0,85,0.00,,,0.00,WeatherCatV1.21B27,2013-08-19 06:41:00,
2013-08-19 02:46:00,61.9,57.3,29.99,WSW,256,0.0,0.0,85,0.00,,,0.00,WeatherCatV1.21B27,2013-08-19 06:46:00,
2013-08-19 02:51:00,61.8,57.2,29.99,WSW,256,0.0,0.0,85,0.00,,,0.00,WeatherCatV1.21B27,2013-08-19 06:51:00,
2013-08-19 02:56:00,61.7,57.1,29.99,WSW,256,0.0,1.0,85,0.00,,,0.00,WeatherCatV1.21B27,2013-08-19 06:56:00,
2013-08-19 03:01:00,61.6,57.0,29.99,SW,222,0.0,0.0,85,0.00,,,0.00,WeatherCatV1.21B27,2013-08-19 07:01:00,
2013-08-19 03:06:00,61.6,57.0,29.99,SW,222,0.0,0.0,85,0.00,,,0.00,WeatherCatV1.21B27,2013-08-19 07:06:00,
2013-08-19 03:11:00,61.5,57.3,29.99,SW,222,0.0,0.0,86,0.00,,,0.00,WeatherCatV1.21B27,2013-08-19 07:11:00,
2013-08-19 03:16:00,61.3,57.1,29.99,SW,215,0.0,0.0,86,0.00,,,0.00,WeatherCatV1.21B27,2013-08-19 07:16:00,
2013-08-19 03:21:00,61.2,57.0,29.99,SW,225,0.0,1.0,86,0.00,,,0.00,WeatherCatV1.21B27,2013-08-19 07:21:00,
2013-08-19 03:26:00,61.2,57.0,29.98,SW,225,0.0,0.0,86,0.00,,,0.00,WeatherCatV1.21B27,2013-08-19 07:26:00,
2013-08-19 03:31:00,61.1,57.2,29.98,SW,225,0.0,0.0,87,0.00,,,0.00,WeatherCatV1.21B27,2013-08-19 07:31:00,
2013-08-19 03:36:00,61.0,57.1,29.98,SW,225,0.0,0.0,87,0.00,,,0.00,WeatherCatV1.21B27,2013-08-19 07:36:00,
2013-08-19 03:41:00,60.9,57.0,29.98,SW,236,0.0,3.0,87,0.00,,,0.00,WeatherCatV1.21B27,2013-08-19 07:41:00,
2013-08-19 03:46:00,60.9,57.0,29.98,West,277,0.0,3.0,87,0.00,,,0.00,WeatherCatV1.21B27,2013-08-19 07:46:00,
2013-08-19 03:51:00,60.8,56.9,29.98,SW,217,0.0,0.0,87,0.00,,,0.00,WeatherCatV1.21B27,2013-08-19 07:51:00,
2013-08-19 03:56:00,60.8,56.9,29.98,SW,217,0.0,0.0,87,0.00,,,0.00,WeatherCatV1.21B27,2013-08-19 07:56:00,
2013-08-19 04:01:00,60.8,56.9,29.98,SW,217,0.0,0.0,87,0.00,,,0.00,WeatherCatV1.21B27,2013-08-19 08:01:00,
2013-08-19 04:06:00,60.7,56.8,29.98,SW,217,0.0,0.0,87,0.00,,,0.00,WeatherCatV1.21B27,2013-08-19 08:06:00,
2013-08-19 04:11:00,60.5,56.6,29.98,SW,217,0.0,0.0,87,0.00,,,0.00,WeatherCatV1.21B27,2013-08-19 08:11:00,
2013-08-19 04:16:00,60.5,56.6,29.98,SW,217,0.0,0.0,87,0.00,,,0.00,WeatherCatV1.21B27,2013-08-19 08:16:00,
2013-08-19 04:21:00,60.3,56.7,29.99,SW,217,0.0,0.0,88,0.00,,,0.00,WeatherCatV1.21B27,2013-08-19 08:21:00,
2013-08-19 04:26:00,60.2,56.6,29.98,SW,217,0.0,0.0,88,0.00,,,0.00,WeatherCatV1.21B27,2013-08-19 08:26:00,
2013-08-19 04:31:00,60.1,56.5,29.98,SW,217,0.0,0.0,88,0.00,,,0.00,WeatherCatV1.21B27,2013-08-19 08:31:00,
2013-08-19 04:36:00,60.0,56.4,29.98,SW,217,0.0,0.0,88,0.00,,,0.00,WeatherCatV1.21B27,2013-08-19 08:36:00,
2013-08-19 04:41:00,59.9,56.3,29.98,SW,217,0.0,0.0,88,0.00,,,0.00,WeatherCatV1.21B27,2013-08-19 08:41:00,
2013-08-19 04:46:00,59.7,56.5,29.98,SW,217,0.0,0.0,89,0.00,,,0.00,WeatherCatV1.21B27,2013-08-19 08:46:00,
2013-08-19 04:51:00,59.6,56.3,29.98,SW,217,0.0,0.0,89,0.00,,,0.00,WeatherCatV1.21B27,2013-08-19 08:51:00,
2013-08-19 04:56:00,59.5,56.6,29.99,SW,217,0.0,2.0,90,0.00,,,0.00,WeatherCatV1.21B27,2013-08-19 08:56:00,
2013-08-19 05:01:00,59.4,56.5,29.99,SW,217,0.0,0.0,90,0.00,,,0.00,WeatherCatV1.21B27,2013-08-19 09:01:00,
2013-08-19 05:06:00,59.4,56.5,29.98,SW,217,0.0,0.0,90,0.00,,,0.00,WeatherCatV1.21B27,2013-08-19 09:06:00,
2013-08-19 05:11:00,59.3,56.4,29.98,SW,231,0.0,1.0,90,0.00,,,0.00,WeatherCatV1.21B27,2013-08-19 09:11:00,
2013-08-19 05:16:00,59.3,56.4,29.98,SW,231,0.0,0.0,90,0.00,,,0.00,WeatherCatV1.21B27,2013-08-19 09:16:00,
2013-08-19 05:21:00,59.3,56.4,29.98,SW,231,0.0,0.0,90,0.00,,,0.00,WeatherCatV1.21B27,2013-08-19 09:21:00,
2013-08-19 05:26:00,59.2,56.3,29.98,SW,231,1.0,2.0,90,0.00,,,0.00,WeatherCatV1.21B27,2013-08-19 09:26:00,
2013-08-19 05:31:00,59.2,56.3,29.98,SW,231,1.0,3.0,90,0.00,,,0.00,WeatherCatV1.21B27,2013-08-19 09:31:00,
2013-08-19 05:36:00,59.2,56.3,29.98,WSW,244,0.0,4.0,90,0.00,,,0.00,WeatherCatV1.21B27,2013-08-19 09:36:00,
2013-08-19 05:41:00,59.3,56.4,29.98,WSW,237,4.0,4.0,90,0.00,,,0.00,WeatherCatV1.21B27,2013-08-19 09:41:00,
2013-08-19 05:46:00,59.3,56.4,29.99,WSW,252,0.0,2.0,90,0.00,,,0.00,WeatherCatV1.21B27,2013-08-19 09:46:00,
2013-08-19 05:51:00,59.3,56.4,29.99,WSW,252,1.0,3.0,90,0.00,,,0.00,WeatherCatV1.21B27,2013-08-19 09:51:00,
2013-08-19 05:56:00,59.3,56.4,29.99,WSW,252,0.0,1.0,90,0.00,,,0.00,WeatherCatV1.21B27,2013-08-19 09:56:00,
2013-08-19 06:01:00,59.3,56.4,29.98,West,262,0.0,1.0,90,0.00,,,0.00,WeatherCatV1.21B27,2013-08-19 10:01:00,
2013-08-19 06:06:00,59.3,56.4,29.98,West,261,0.0,1.0,90,0.00,,,0.00,WeatherCatV1.21B27,2013-08-19 10:06:00,
2013-08-19 06:11:00,59.3,56.4,29.98,West,261,0.0,0.0,90,0.00,,,0.00,WeatherCatV1.21B27,2013-08-19 10:11:00,
2013-08-19 06:16:00,59.2,56.3,29.98,WSW,238,0.0,0.0,90,0.00,,,0.00,WeatherCatV1.21B27,2013-08-19 10:16:00,
2013-08-19 06:21:00,59.2,56.3,29.98,WSW,238,1.0,2.0,90,0.00,,,0.00,WeatherCatV1.21B27,2013-08-19 10:21:00,
2013-08-19 06:26:00,59.2,56.6,29.98,WSW,238,0.0,2.0,91,0.00,,,0.00,WeatherCatV1.21B27,2013-08-19 10:26:00,
2013-08-19 06:31:00,59.3,56.7,29.98,WSW,238,0.0,1.0,91,0.00,,,0.00,WeatherCatV1.21B27,2013-08-19 10:31:00,
2013-08-19 06:36:00,59.4,56.8,29.98,SW,236,0.0,1.0,91,0.00,,,0.00,WeatherCatV1.21B27,2013-08-19 10:36:00,
2013-08-19 06:41:00,59.5,56.9,29.99,West,271,0.0,0.0,91,0.00,,,0.00,WeatherCatV1.21B27,2013-08-19 10:41:00,
2013-08-19 06:46:00,59.6,57.0,29.98,West,269,0.0,0.0,91,0.00,,,0.00,WeatherCatV1.21B27,2013-08-19 10:46:00,
2013-08-19 06:51:00,59.8,57.2,29.98,West,269,0.0,1.0,91,0.00,,,0.00,WeatherCatV1.21B27,2013-08-19 10:51:00,
2013-08-19 06:56:00,60.1,57.5,29.98,West,269,1.0,1.0,91,0.00,,,0.00,WeatherCatV1.21B27,2013-08-19 10:56:00,
2013-08-19 07:01:00,60.4,57.5,29.98,WSW,252,0.0,0.0,90,0.00,,,0.00,WeatherCatV1.21B27,2013-08-19 11:01:00,
2013-08-19 07:06:00,60.8,57.8,29.98,WSW,252,0.0,1.0,90,0.00,,,0.00,WeatherCatV1.21B27,2013-08-19 11:06:00,
2013-08-19 07:11:00,61.2,57.9,29.98,SW,223,0.0,3.0,89,0.00,,,0.00,WeatherCatV1.21B27,2013-08-19 11:11:00,
2013-08-19 07:16:00,61.4,58.1,29.98,SW,223,0.0,1.0,89,0.00,,,0.00,WeatherCatV1.21B27,2013-08-19 11:16:00,
2013-08-19 07:21:00,61.7,58.4,29.98,SW,236,0.0,0.0,89,0.00,,,0.00,WeatherCatV1.21B27,2013-08-19 11:21:00,
2013-08-19 07:26:00,61.9,58.6,29.98,SW,236,0.0,0.0,89,0.00,,,0.00,WeatherCatV1.21B27,2013-08-19 11:26:00,
2013-08-19 07:31:00,62.0,58.4,29.98,SW,221,0.0,3.0,88,0.00,,,0.00,WeatherCatV1.21B27,2013-08-19 11:31:00,
2013-08-19 07:36:00,62.3,59.0,29.98,SW,224,0.0,5.0,89,0.00,,,0.00,WeatherCatV1.21B27,2013-08-19 11:36:00,
2013-08-19 07:41:00,62.6,59.0,29.98,SW,224,0.0,0.0,88,0.00,,,0.00,WeatherCatV1.21B27,2013-08-19 11:41:00,
2013-08-19 07:46:00,62.9,59.3,29.98,SW,234,0.0,3.0,88,0.00,,,0.00,WeatherCatV1.21B27,2013-08-19 11:46:00,
2013-08-19 07:51:00,63.3,59.4,29.98,SSW,201,0.0,3.0,87,0.00,,,0.00,WeatherCatV1.21B27,2013-08-19 11:51:00,
2013-08-19 07:56:00,63.7,59.4,29.97,SW,214,0.0,0.0,86,0.00,,,0.00,WeatherCatV1.21B27,2013-08-19 11:56:00,
2013-08-19 08:01:00,64.1,59.8,29.97,SW,227,0.0,3.0,86,0.00,,,0.00,WeatherCatV1.21B27,2013-08-19 12:01:00,
2013-08-19 08:06:00,64.5,59.9,29.97,SSW,205,0.0,2.0,85,0.00,,,0.00,WeatherCatV1.21B27,2013-08-19 12:06:00,
2013-08-19 08:11:00,64.9,60.3,29.97,SW,225,1.0,2.0,85,0.00,,,0.00,WeatherCatV1.21B27,2013-08-19 12:11:00,
2013-08-19 08:16:00,65.3,60.3,29.97,SW,221,1.0,3.0,84,0.00,,,0.00,WeatherCatV1.21B27,2013-08-19 12:16:00,
2013-08-19 08:21:00,65.8,60.5,29.97,WSW,253,1.0,4.0,83,0.00,,,0.00,WeatherCatV1.21B27,2013-08-19 12:21:00,
2013-08-19 08:26:00,66.3,61.0,29.98,WSW,250,0.0,1.0,83,0.00,,,0.00,WeatherCatV1.21B27,2013-08-19 12:26:00,
2013-08-19 08:31:00,66.8,61.1,29.98,South,190,1.0,8.0,82,0.00,,,0.00,WeatherCatV1.21B27,2013-08-19 12:31:00,
2013-08-19 08:36:00,67.3,61.3,29.98,SW,231,0.0,2.0,81,0.00,,,0.00,WeatherCatV1.21B27,2013-08-19 12:36:00,
2013-08-19 08:41:00,67.7,61.7,29.97,WSW,255,0.0,3.0,81,0.00,,,0.00,WeatherCatV1.21B27,2013-08-19 12:41:00,
2013-08-19 08:46:00,68.0,61.6,29.97,WSW,243,3.0,4.0,80,0.00,,,0.00,WeatherCatV1.21B27,2013-08-19 12:46:00,
2013-08-19 08:51:00,68.5,61.7,29.97,SW,219,1.0,2.0,79,0.00,,,0.00,WeatherCatV1.21B27,2013-08-19 12:51:00,
2013-08-19 08:56:00,69.1,62.3,29.97,South,178,0.0,1.0,79,0.00,,,0.00,WeatherCatV1.21B27,2013-08-19 12:56:00,
2013-08-19 09:01:00,69.6,62.1,29.97,SW,217,1.0,4.0,77,0.00,,,0.00,WeatherCatV1.21B27,2013-08-19 13:01:00,
2013-08-19 09:06:00,69.9,62.3,29.97,SW,225,0.0,0.0,77,0.00,,,0.00,WeatherCatV1.21B27,2013-08-19 13:06:00,
2013-08-19 09:11:00,70.4,62.5,29.96,SW,234,0.0,1.0,76,0.00,,,0.00,WeatherCatV1.21B27,2013-08-19 13:11:00,
2013-08-19 09:16:00,70.8,62.8,29.96,SW,229,0.0,2.0,76,0.00,,,0.00,WeatherCatV1.21B27,2013-08-19 13:16:00,
2013-08-19 09:21:00,71.3,62.6,29.96,SW,225,3.0,5.0,74,0.00,,,0.00,WeatherCatV1.21B27,2013-08-19 13:21:00,
2013-08-19 09:26:00,71.8,63.0,29.96,SW,229,0.0,3.0,74,0.00,,,0.00,WeatherCatV1.21B27,2013-08-19 13:26:00,
2013-08-19 09:31:00,72.3,63.2,29.96,SW,225,0.0,2.0,73,0.00,,,0.00,WeatherCatV1.21B27,2013-08-19 13:31:00,
2013-08-19 09:36:00,72.8,62.4,29.96,SW,223,1.0,5.0,70,0.00,,,0.00,WeatherCatV1.21B27,2013-08-19 13:36:00,
2013-08-19 09:41:00,73.2,62.8,29.95,SW,236,1.0,4.0,70,0.00,,,0.00,WeatherCatV1.21B27,2013-08-19 13:41:00,
2013-08-19 09:46:00,73.5,63.1,29.95,WSW,240,0.0,5.0,70,0.00,,,0.00,WeatherCatV1.21B27,2013-08-19 13:46:00,
2013-08-19 09:51:00,73.9,63.1,29.95,SSW,198,0.0,0.0,69,0.00,,,0.00,WeatherCatV1.21B27,2013-08-19 13:51:00,
2013-08-19 09:56:00,74.6,63.3,29.95,WSW,244,0.0,0.0,68,0.00,,,0.00,WeatherCatV1.21B27,2013-08-19 13:56:00,
2013-08-19 10:01:00,74.8,63.1,29.95,SSW,203,2.0,5.0,67,0.00,,,0.00,WeatherCatV1.21B27,2013-08-19 14:01:00,
2013-08-19 10:06:00,74.7,62.1,29.96,WSW,244,3.0,4.0,65,0.00,,,0.00,WeatherCatV1.21B27,2013-08-19 14:06:00,
2013-08-19 10:11:00,74.7,62.6,29.95,WSW,242,0.0,3.0,66,0.00,,,0.00,WeatherCatV1.21B27,2013-08-19 14:11:00,
2013-08-19 10:16:00,74.9,62.3,29.95,WNW,288,1.0,4.0,65,0.00,,,0.00,WeatherCatV1.21B27,2013-08-19 14:16:00,
2013-08-19 10:21:00,75.1,62.1,29.95,SSW,207,1.0,4.0,64,0.00,,,0.00,WeatherCatV1.21B27,2013-08-19 14:21:00,
2013-08-19 10:26:00,75.2,62.2,29.95,SSE,159,1.0,5.0,64,0.00,,,0.00,WeatherCatV1.21B27,2013-08-19 14:26:00,
2013-08-19 10:31:00,75.4,62.8,29.95,SSW,200,0.0,0.0,65,0.00,,,0.00,WeatherCatV1.21B27,2013-08-19 14:31:00,
2013-08-19 10:36:00,75.8,62.7,29.95,WSW,242,5.0,5.0,64,0.00,,,0.00,WeatherCatV1.21B27,2013-08-19 14:36:00,
2013-08-19 10:41:00,75.9,62.8,29.95,SW,220,5.0,5.0,64,0.00,,,0.00,WeatherCatV1.21B27,2013-08-19 14:41:00,
2013-08-19 10:46:00,76.2,63.1,29.94,SSW,195,0.0,5.0,64,0.00,,,0.00,WeatherCatV1.21B27,2013-08-19 14:46:00,
2013-08-19 10:51:00,76.7,61.8,29.94,NNW,332,0.0,1.0,60,0.00,,,0.00,WeatherCatV1.21B27,2013-08-19 14:51:00,
2013-08-19 10:56:00,77.2,63.2,29.94,SW,215,0.0,2.0,62,0.00,,,0.00,WeatherCatV1.21B27,2013-08-19 14:56:00,
2013-08-19 11:01:00,77.1,62.1,29.94,South,188,1.0,1.0,60,0.00,,,0.00,WeatherCatV1.21B27,2013-08-19 15:01:00,
2013-08-19 11:06:00,77.0,62.0,29.94,SSE,167,2.0,4.0,60,0.00,,,0.00,WeatherCatV1.21B27,2013-08-19 15:06:00,
2013-08-19 11:11:00,77.1,62.1,29.94,WSW,246,2.0,2.0,60,0.00,,,0.00,WeatherCatV1.21B27,2013-08-19 15:11:00,
2013-08-19 11:16:00,77.1,61.2,29.94,SW,218,0.0,0.0,58,0.00,,,0.00,WeatherCatV1.21B27,2013-08-19 15:16:00,
2013-08-19 11:21:00,77.2,61.3,29.94,SW,234,3.0,3.0,58,0.00,,,0.00,WeatherCatV1.21B27,2013-08-19 15:21:00,
2013-08-19 11:26:00,77.2,60.8,29.94,South,175,1.0,2.0,57,0.00,,,0.00,WeatherCatV1.21B27,2013-08-19 15:26:00,
2013-08-19 11:31:00,77.3,60.4,29.94,South,182,0.0,4.0,56,0.00,,,0.00,WeatherCatV1.21B27,2013-08-19 15:31:00,
2013-08-19 11:36:00,77.3,60.4,29.94,WNW,283,3.0,4.0,56,0.00,,,0.00,WeatherCatV1.21B27,2013-08-19 15:36:00,
2013-08-19 11:41:00,77.5,60.5,29.94,SSE,147,0.0,3.0,56,0.00,,,0.00,WeatherCatV1.21B27,2013-08-19 15:41:00,
2013-08-19 11:46:00,77.5,59.5,29.94,SW,218,2.0,2.0,54,0.00,,,0.00,WeatherCatV1.21B27,2013-08-19 15:46:00,
2013-08-19 11:51:00,77.6,60.1,29.94,WNW,282,0.0,0.0,55,0.00,,,0.00,WeatherCatV1.21B27,2013-08-19 15:51:00,
2013-08-19 11:56:00,78.0,58.9,29.94,SSW,206,0.0,4.0,52,0.00,,,0.00,WeatherCatV1.21B27,2013-08-19 15:56:00,
2013-08-19 12:01:00,78.2,58.0,29.94,WNW,296,0.0,1.0,50,0.00,,,0.00,WeatherCatV1.21B27,2013-08-19 16:01:00,
2013-08-19 12:06:00,78.2,58.0,29.93,WNW,292,1.0,3.0,50,0.00,,,0.00,WeatherCatV1.21B27,2013-08-19 16:06:00,
2013-08-19 12:11:00,78.4,58.8,29.93,SSW,209,0.0,4.0,51,0.00,,,0.00,WeatherCatV1.21B27,2013-08-19 16:11:00,
2013-08-19 12:16:00,78.5,58.8,29.93,WNW,287,1.0,5.0,51,0.00,,,0.00,WeatherCatV1.21B27,2013-08-19 16:16:00,
2013-08-19 12:21:00,78.6,58.9,29.93,WNW,283,1.0,1.0,51,0.00,,,0.00,WeatherCatV1.21B27,2013-08-19 16:21:00,
2013-08-19 12:26:00,78.7,59.6,29.93,South,183,1.0,4.0,52,0.00,,,0.00,WeatherCatV1.21B27,2013-08-19 16:26:00,
2013-08-19 12:31:00,78.9,59.2,29.93,West,267,0.0,3.0,51,0.00,,,0.00,WeatherCatV1.21B27,2013-08-19 16:31:00,
2013-08-19 12:36:00,78.9,59.2,29.93,SW,233,1.0,2.0,51,0.00,,,0.00,WeatherCatV1.21B27,2013-08-19 16:36:00,
2013-08-19 12:41:00,79.0,58.8,29.93,SW,219,0.0,3.0,50,0.00,,,0.00,WeatherCatV1.21B27,2013-08-19 16:41:00,
2013-08-19 12:46:00,78.8,58.0,29.92,SW,225,0.0,6.0,49,0.00,,,0.00,WeatherCatV1.21B27,2013-08-19 16:46:00,
2013-08-19 12:51:00,78.9,59.8,29.92,West,281,0.0,4.0,52,0.00,,,0.00,WeatherCatV1.21B27,2013-08-19 16:51:00,
2013-08-19 12:56:00,78.9,58.1,29.92,SW,231,1.0,1.0,49,0.00,,,0.00,WeatherCatV1.21B27,2013-08-19 16:56:00,
2013-08-19 13:01:00,79.1,59.4,29.92,WSW,240,1.0,3.0,51,0.00,,,0.00,WeatherCatV1.21B27,2013-08-19 17:01:00,
2013-08-19 13:06:00,79.3,59.0,29.92,SE,139,2.0,2.0,50,0.00,,,0.00,WeatherCatV1.21B27,2013-08-19 17:06:00,
2013-08-19 13:11:00,79.6,58.2,29.92,South,169,1.0,5.0,48,0.00,,,0.00,WeatherCatV1.21B27,2013-08-19 17:11:00,
2013-08-19 13:16:00,79.8,57.2,29.92,SSW,211,0.0,3.0,46,0.00,,,0.00,WeatherCatV1.21B27,2013-08-19 17:16:00,
2013-08-19 13:21:00,79.8,57.8,29.92,SW,219,2.0,5.0,47,0.00,,,0.00,WeatherCatV1.21B27,2013-08-19 17:21:00,
2013-08-19 13:26:00,79.9,58.4,29.92,West,271,0.0,3.0,48,0.00,,,0.00,WeatherCatV1.21B27,2013-08-19 17:26:00,
2013-08-19 13:31:00,80.2,59.8,29.91,SW,218,0.0,1.0,50,0.00,,,0.00,WeatherCatV1.21B27,2013-08-19 17:31:00,
2013-08-19 13:36:00,80.3,59.9,29.91,SW,234,0.0,1.0,50,0.00,,,0.00,WeatherCatV1.21B27,2013-08-19 17:36:00,
2013-08-19 13:41:00,80.4,58.3,29.91,SSW,193,0.0,1.0,47,0.00,,,0.00,WeatherCatV1.21B27,2013-08-19 17:41:00,
2013-08-19 13:46:00,80.3,59.4,29.91,SW,224,0.0,3.0,49,0.00,,,0.00,WeatherCatV1.21B27,2013-08-19 17:46:00,
2013-08-19 13:51:00,80.5,60.1,29.91,SSW,207,1.0,2.0,50,0.00,,,0.00,WeatherCatV1.21B27,2013-08-19 17:51:00,
2013-08-19 13:56:00,80.8,60.4,29.91,SW,224,0.0,2.0,50,0.00,,,0.00,WeatherCatV1.21B27,2013-08-19 17:56:00,
2013-08-19 14:01:00,80.9,59.3,29.91,SSW,194,0.0,1.0,48,0.00,,,0.00,WeatherCatV1.21B27,2013-08-19 18:01:00,
2013-08-19 14:06:00,81.2,60.2,29.91,SW,231,0.0,2.0,49,0.00,,,0.00,WeatherCatV1.21B27,2013-08-19 18:06:00,
2013-08-19 14:11:00,81.6,60.0,29.91,WNW,296,1.0,1.0,48,0.00,,,0.00,WeatherCatV1.21B27,2013-08-19 18:11:00,
2013-08-19 14:16:00,82.0,61.5,29.91,SW,223,1.0,5.0,50,0.00,,,0.00,WeatherCatV1.21B27,2013-08-19 18:16:00,
2013-08-19 14:21:00,81.5,61.0,29.91,SW,222,0.0,2.0,50,0.00,,,0.00,WeatherCatV1.21B27,2013-08-19 18:21:00,
2013-08-19 14:26:00,81.4,61.0,29.91,WSW,238,0.0,5.0,50,0.00,,,0.00,WeatherCatV1.21B27,2013-08-19 18:26:00,
2013-08-19 14:31:00,81.1,60.7,29.91,SW,231,0.0,3.0,50,0.00,,,0.00,WeatherCatV1.21B27,2013-08-19 18:31:00,
2013-08-19 14:36:00,80.8,61.5,29.91,SSW,213,0.0,0.0,52,0.00,,,0.00,WeatherCatV1.21B27,2013-08-19 18:36:00,
2013-08-19 14:41:00,80.6,61.3,29.91,West,281,1.0,6.0,52,0.00,,,0.00,WeatherCatV1.21B27,2013-08-19 18:41:00,
2013-08-19 14:46:00,80.5,61.2,29.91,WSW,238,2.0,6.0,52,0.00,,,0.00,WeatherCatV1.21B27,2013-08-19 18:46:00,
2013-08-19 14:51:00,80.5,62.3,29.90,SW,234,3.0,4.0,54,0.00,,,0.00,WeatherCatV1.21B27,2013-08-19 18:51:00,
2013-08-19 14:56:00,80.5,61.8,29.90,West,272,2.0,3.0,53,0.00,,,0.00,WeatherCatV1.21B27,2013-08-19 18:56:00,
2013-08-19 15:01:00,80.3,62.1,29.91,South,180,1.0,2.0,54,0.00,,,0.00,WeatherCatV1.21B27,2013-08-19 19:01:00,
2013-08-19 15:06:00,80.2,61.5,29.90,SW,219,0.0,2.0,53,0.00,,,0.00,WeatherCatV1.21B27,2013-08-19 19:06:00,
2013-08-19 15:11:00,80.4,62.7,29.90,SW,227,0.0,1.0,55,0.00,,,0.00,WeatherCatV1.21B27,2013-08-19 19:11:00,
2013-08-19 15:16:00,80.4,62.7,29.90,SSE,152,3.0,5.0,55,0.00,,,0.00,WeatherCatV1.21B27,2013-08-19 19:16:00,
2013-08-19 15:21:00,80.3,62.6,29.90,SW,235,0.0,1.0,55,0.00,,,0.00,WeatherCatV1.21B27,2013-08-19 19:21:00,
2013-08-19 15:26:00,80.4,63.2,29.90,SW,235,0.0,0.0,56,0.00,,,0.00,WeatherCatV1.21B27,2013-08-19 19:26:00,
2013-08-19 15:31:00,80.5,62.8,29.90,SW,233,0.0,1.0,55,0.00,,,0.00,WeatherCatV1.21B27,2013-08-19 19:31:00,
2013-08-19 15:36:00,80.6,63.4,29.90,WSW,252,2.0,3.0,56,0.00,,,0.00,WeatherCatV1.21B27,2013-08-19 19:36:00,
2013-08-19 15:41:00,80.5,63.3,29.90,South,188,1.0,2.0,56,0.00,,,0.00,WeatherCatV1.21B27,2013-08-19 19:41:00,
2013-08-19 15:46:00,80.3,62.6,29.89,SSW,207,2.0,3.0,55,0.00,,,0.00,WeatherCatV1.21B27,2013-08-19 19:46:00,
2013-08-19 15:51:00,80.0,62.9,29.90,West,268,0.0,1.0,56,0.00,,,0.00,WeatherCatV1.21B27,2013-08-19 19:51:00,
2013-08-19 15:56:00,80.1,63.0,29.89,WSW,245,3.0,8.0,56,0.00,,,0.00,WeatherCatV1.21B27,2013-08-19 19:56:00,
2013-08-19 16:01:00,80.0,62.9,29.89,SW,220,1.0,4.0,56,0.00,,,0.00,WeatherCatV1.21B27,2013-08-19 20:01:00,
2013-08-19 16:06:00,79.8,62.2,29.89,SW,227,3.0,7.0,55,0.00,,,0.00,WeatherCatV1.21B27,2013-08-19 20:06:00,
2013-08-19 16:11:00,79.8,63.7,29.89,South,180,1.0,2.0,58,0.00,,,0.00,WeatherCatV1.21B27,2013-08-19 20:11:00,
2013-08-19 16:16:00,79.8,62.2,29.89,SW,234,0.0,4.0,55,0.00,,,0.00,WeatherCatV1.21B27,2013-08-19 20:16:00,
2013-08-19 16:21:00,79.8,63.2,29.89,West,267,0.0,3.0,57,0.00,,,0.00,WeatherCatV1.21B27,2013-08-19 20:21:00,
2013-08-19 16:26:00,79.6,63.0,29.89,WSW,247,0.0,1.0,57,0.00,,,0.00,WeatherCatV1.21B27,2013-08-19 20:26:00,
2013-08-19 16:31:00,79.3,62.2,29.89,SSW,197,0.0,5.0,56,0.00,,,0.00,WeatherCatV1.21B27,2013-08-19 20:31:00,
2013-08-19 16:36:00,79.2,62.6,29.89,WSW,240,1.0,1.0,57,0.00,,,0.00,WeatherCatV1.21B27,2013-08-19 20:36:00,
2013-08-19 16:41:00,79.2,63.1,29.89,WSW,240,0.0,1.0,58,0.00,,,0.00,WeatherCatV1.21B27,2013-08-19 20:41:00,
2013-08-19 16:46:00,79.3,62.7,29.89,SSW,208,2.0,6.0,57,0.00,,,0.00,WeatherCatV1.21B27,2013-08-19 20:46:00,
2013-08-19 16:51:00,79.3,63.2,29.89,West,261,0.0,1.0,58,0.00,,,0.00,WeatherCatV1.21B27,2013-08-19 20:51:00,
2013-08-19 16:56:00,79.0,62.4,29.89,SW,225,0.0,5.0,57,0.00,,,0.00,WeatherCatV1.21B27,2013-08-19 20:56:00,
2013-08-19 17:01:00,78.8,62.8,29.89,SSW,209,0.0,5.0,58,0.00,,,0.00,WeatherCatV1.21B27,2013-08-19 21:01:00,
2013-08-19 17:06:00,78.6,62.6,29.89,SSW,198,2.0,5.0,58,0.00,,,0.00,WeatherCatV1.21B27,2013-08-19 21:06:00,
2013-08-19 17:11:00,78.4,62.9,29.89,WSW,249,0.0,1.0,59,0.00,,,0.00,WeatherCatV1.21B27,2013-08-19 21:11:00,
2013-08-19 17:16:00,78.4,63.3,29.88,WSW,248,1.0,1.0,60,0.00,,,0.00,WeatherCatV1.21B27,2013-08-19 21:16:00,
2013-08-19 17:21:00,78.3,63.2,29.89,SW,216,0.0,3.0,60,0.00,,,0.00,WeatherCatV1.21B27,2013-08-19 21:21:00,
2013-08-19 17:26:00,78.2,63.2,29.89,SW,215,0.0,3.0,60,0.00,,,0.00,WeatherCatV1.21B27,2013-08-19 21:26:00,
2013-08-19 17:31:00,78.0,63.9,29.89,West,261,1.0,2.0,62,0.00,,,0.00,WeatherCatV1.21B27,2013-08-19 21:31:00,
2013-08-19 17:36:00,77.9,62.9,29.88,WSW,245,1.0,3.0,60,0.00,,,0.00,WeatherCatV1.21B27,2013-08-19 21:36:00,
2013-08-19 17:41:00,77.7,62.7,29.89,West,272,0.0,2.0,60,0.00,,,0.00,WeatherCatV1.21B27,2013-08-19 21:41:00,
2013-08-19 17:46:00,77.5,63.0,29.89,SW,220,0.0,1.0,61,0.00,,,0.00,WeatherCatV1.21B27,2013-08-19 21:46:00,
2013-08-19 17:51:00,77.5,63.0,29.89,SW,231,0.0,1.0,61,0.00,,,0.00,WeatherCatV1.21B27,2013-08-19 21:51:00,
2013-08-19 17:56:00,77.3,62.8,29.89,South,187,1.0,2.0,61,0.00,,,0.00,WeatherCatV1.21B27,2013-08-19 21:56:00,
2013-08-19 18:01:00,77.2,63.2,29.89,South,188,0.0,2.0,62,0.00,,,0.00,WeatherCatV1.21B27,2013-08-19 22:01:00,
2013-08-19 18:06:00,77.2,63.2,29.89,WSW,246,4.0,4.0,62,0.00,,,0.00,WeatherCatV1.21B27,2013-08-19 22:06:00,
2013-08-19 18:11:00,77.1,63.5,29.90,SW,217,3.0,4.0,63,0.00,,,0.00,WeatherCatV1.21B27,2013-08-19 22:11:00,
2013-08-19 18:16:00,77.0,63.4,29.90,SW,236,0.0,5.0,63,0.00,,,0.00,WeatherCatV1.21B27,2013-08-19 22:16:00,
2013-08-19 18:21:00,76.8,63.2,29.90,SW,216,1.0,7.0,63,0.00,,,0.00,WeatherCatV1.21B27,2013-08-19 22:21:00,
2013-08-19 18:26:00,76.7,63.6,29.90,SW,232,2.0,4.0,64,0.00,,,0.00,WeatherCatV1.21B27,2013-08-19 22:26:00,
2013-08-19 18:31:00,76.6,63.0,29.90,WSW,258,0.0,1.0,63,0.00,,,0.00,WeatherCatV1.21B27,2013-08-19 22:31:00,
2013-08-19 18:36:00,76.6,63.0,29.90,WSW,243,3.0,3.0,63,0.00,,,0.00,WeatherCatV1.21B27,2013-08-19 22:36:00,
2013-08-19 18:41:00,76.4,62.8,29.91,SW,232,3.0,3.0,63,0.00,,,0.00,WeatherCatV1.21B27,2013-08-19 22:41:00,
2013-08-19 18:46:00,76.2,62.2,29.91,SSW,196,0.0,3.0,62,0.00,,,0.00,WeatherCatV1.21B27,2013-08-19 22:46:00,
2013-08-19 18:51:00,76.1,62.1,29.91,West,273,1.0,1.0,62,0.00,,,0.00,WeatherCatV1.21B27,2013-08-19 22:51:00,
2013-08-19 18:56:00,76.0,61.6,29.91,WSW,246,5.0,6.0,61,0.00,,,0.00,WeatherCatV1.21B27,2013-08-19 22:56:00,
2013-08-19 19:01:00,75.8,61.8,29.91,WSW,242,0.0,3.0,62,0.00,,,0.00,WeatherCatV1.21B27,2013-08-19 23:01:00,
2013-08-19 19:06:00,75.7,61.7,29.91,WSW,252,1.0,2.0,62,0.00,,,0.00,WeatherCatV1.21B27,2013-08-19 23:06:00,
2013-08-19 19:11:00,75.6,62.1,29.91,SW,234,0.0,0.0,63,0.00,,,0.00,WeatherCatV1.21B27,2013-08-19 23:11:00,
2013-08-19 19:16:00,75.5,61.5,29.91,West,274,0.0,3.0,62,0.00,,,0.00,WeatherCatV1.21B27,2013-08-19 23:16:00,
2013-08-19 19:21:00,75.3,61.4,29.91,SSW,204,0.0,2.0,62,0.00,,,0.00,WeatherCatV1.21B27,2013-08-19 23:21:00,
2013-08-19 19:26:00,75.2,61.7,29.91,West,259,0.0,0.0,63,0.00,,,0.00,WeatherCatV1.21B27,2013-08-19 23:26:00,
2013-08-19 19:31:00,75.1,61.6,29.91,WSW,250,0.0,0.0,63,0.00,,,0.00,WeatherCatV1.21B27,2013-08-19 23:31:00,
2013-08-19 19:36:00,74.9,61.4,29.91,SW,227,0.0,0.0,63,0.00,,,0.00,WeatherCatV1.21B27,2013-08-19 23:36:00,
2013-08-19 19:41:00,74.7,61.2,29.92,SW,223,0.0,0.0,63,0.00,,,0.00,WeatherCatV1.21B27,2013-08-19 23:41:00,
2013-08-19 19:46:00,74.6,61.6,29.91,SW,223,0.0,0.0,64,0.00,,,0.00,WeatherCatV1.21B27,2013-08-19 23:46:00,
2013-08-19 19:51:00,74.4,61.8,29.91,SW,223,0.0,0.0,65,0.00,,,0.00,WeatherCatV1.21B27,2013-08-19 23:51:00,
2013-08-19 19:56:00,74.2,61.7,29.91,SW,223,0.0,0.0,65,0.00,,,0.00,WeatherCatV1.21B27,2013-08-19 23:56:00,
2013-08-19 20:01:00,73.9,61.8,29.91,SW,223,0.0,0.0,66,0.00,,,0.00,WeatherCatV1.21B27,2013-08-20 00:01:00,
2013-08-19 20:06:00,73.7,62.0,29.91,SW,223,0.0,0.0,67,0.00,,,0.00,WeatherCatV1.21B27,2013-08-20 00:06:00,
2013-08-19 20:11:00,73.4,61.8,29.91,SW,223,0.0,0.0,67,0.00,,,0.00,WeatherCatV1.21B27,2013-08-20 00:11:00,
2013-08-19 20:16:00,73.1,61.5,29.91,SW,223,0.0,0.0,67,0.00,,,0.00,WeatherCatV1.21B27,2013-08-20 00:16:00,
2013-08-19 20:21:00,73.0,61.8,29.92,SW,223,0.0,0.0,68,0.00,,,0.00,WeatherCatV1.21B27,2013-08-20 00:21:00,
2013-08-19 20:26:00,72.8,62.0,29.92,SW,223,0.0,0.0,69,0.00,,,0.00,WeatherCatV1.21B27,2013-08-20 00:26:00,
2013-08-19 20:31:00,72.6,61.8,29.92,SW,223,0.0,0.0,69,0.00,,,0.00,WeatherCatV1.21B27,2013-08-20 00:31:00,
2013-08-19 20:36:00,72.4,62.0,29.92,SW,223,0.0,0.0,70,0.00,,,0.00,WeatherCatV1.21B27,2013-08-20 00:36:00,
2013-08-19 20:41:00,72.2,62.3,29.92,SW,231,0.0,0.0,71,0.00,,,0.00,WeatherCatV1.21B27,2013-08-20 00:41:00,
2013-08-19 20:46:00,72.1,62.2,29.92,SW,231,0.0,0.0,71,0.00,,,0.00,WeatherCatV1.21B27,2013-08-20 00:46:00,
2013-08-19 20:51:00,71.9,62.0,29.92,SW,231,0.0,0.0,71,0.00,,,0.00,WeatherCatV1.21B27,2013-08-20 00:51:00,
2013-08-19 20:56:00,71.7,61.8,29.92,SW,231,0.0,0.0,71,0.00,,,0.00,WeatherCatV1.21B27,2013-08-20 00:56:00,
2013-08-19 21:01:00,71.6,62.1,29.92,SW,231,0.0,0.0,72,0.00,,,0.00,WeatherCatV1.21B27,2013-08-20 01:01:00,
2013-08-19 21:06:00,71.5,62.0,29.92,SW,231,0.0,0.0,72,0.00,,,0.00,WeatherCatV1.21B27,2013-08-20 01:06:00,
2013-08-19 21:11:00,71.4,61.9,29.92,SW,231,0.0,0.0,72,0.00,,,0.00,WeatherCatV1.21B27,2013-08-20 01:11:00,
2013-08-19 21:16:00,71.3,61.8,29.92,SW,231,0.0,0.0,72,0.00,,,0.00,WeatherCatV1.21B27,2013-08-20 01:16:00,
2013-08-19 21:21:00,71.2,61.7,29.92,SW,231,0.0,0.0,72,0.00,,,0.00,WeatherCatV1.21B27,2013-08-20 01:21:00,
2013-08-19 21:26:00,71.0,61.9,29.92,SW,231,0.0,0.0,73,0.00,,,0.00,WeatherCatV1.21B27,2013-08-20 01:26:00,
2013-08-19 21:31:00,71.0,61.9,29.92,SW,235,0.0,0.0,73,0.00,,,0.00,WeatherCatV1.21B27,2013-08-20 01:31:00,
2013-08-19 21:36:00,70.9,61.8,29.92,SW,235,0.0,0.0,73,0.00,,,0.00,WeatherCatV1.21B27,2013-08-20 01:36:00,
2013-08-19 21:41:00,70.9,61.4,29.92,SW,235,0.0,0.0,72,0.00,,,0.00,WeatherCatV1.21B27,2013-08-20 01:41:00,
2013-08-19 21:46:00,70.9,61.8,29.92,WSW,250,0.0,2.0,73,0.00,,,0.00,WeatherCatV1.21B27,2013-08-20 01:46:00,
2013-08-19 21:51:00,70.9,61.8,29.92,West,271,0.0,0.0,73,0.00,,,0.00,WeatherCatV1.21B27,2013-08-20 01:51:00,
2013-08-19 21:56:00,70.9,61.8,29.92,West,271,0.0,0.0,73,0.00,,,0.00,WeatherCatV1.21B27,2013-08-20 01:56:00,
2013-08-19 22:01:00,70.9,61.8,29.92,West,271,0.0,0.0,73,0.00,,,0.00,WeatherCatV1.21B27,2013-08-20 02:01:00,
2013-08-19 22:06:00,70.9,61.8,29.92,West,271,0.0,0.0,73,0.00,,,0.00,WeatherCatV1.21B27,2013-08-20 02:06:00,
2013-08-19 22:11:00,70.9,61.8,29.92,West,271,0.0,0.0,73,0.00,,,0.00,WeatherCatV1.21B27,2013-08-20 02:11:00,
2013-08-19 22:16:00,70.9,61.4,29.92,SW,225,0.0,3.0,72,0.00,,,0.00,WeatherCatV1.21B27,2013-08-20 02:16:00,
2013-08-19 22:21:00,71.0,61.5,29.92,WSW,245,0.0,3.0,72,0.00,,,0.00,WeatherCatV1.21B27,2013-08-20 02:21:00,
2013-08-19 22:26:00,71.0,61.5,29.92,WSW,245,0.0,0.0,72,0.00,,,0.00,WeatherCatV1.21B27,2013-08-20 02:26:00,
2013-08-19 22:31:00,71.0,61.5,29.92,WSW,245,0.0,0.0,72,0.00,,,0.00,WeatherCatV1.21B27,2013-08-20 02:31:00,
2013-08-19 22:36:00,71.0,61.5,29.92,WSW,245,0.0,0.0,72,0.00,,,0.00,WeatherCatV1.21B27,2013-08-20 02:36:00,
2013-08-19 22:41:00,70.9,61.4,29.92,WSW,245,0.0,0.0,72,0.00,,,0.00,WeatherCatV1.21B27,2013-08-20 02:41:00,
2013-08-19 22:46:00,70.9,61.4,29.92,WSW,252,0.0,0.0,72,0.00,,,0.00,WeatherCatV1.21B27,2013-08-20 02:46:00,
2013-08-19 22:51:00,70.9,61.8,29.92,SW,214,0.0,0.0,73,0.00,,,0.00,WeatherCatV1.21B27,2013-08-20 02:51:00,
2013-08-19 22:56:00,70.9,61.8,29.92,SSW,202,0.0,0.0,73,0.00,,,0.00,WeatherCatV1.21B27,2013-08-20 02:56:00,
2013-08-19 23:01:00,70.8,61.7,29.92,SSW,202,0.0,0.0,73,0.00,,,0.00,WeatherCatV1.21B27,2013-08-20 03:01:00,
2013-08-19 23:06:00,70.8,61.3,29.92,WSW,237,0.0,1.0,72,0.00,,,0.00,WeatherCatV1.21B27,2013-08-20 03:06:00,
2013-08-19 23:12:00,70.8,61.7,29.92,SW,236,0.0,0.0,73,0.00,,,0.00,WeatherCatV1.21B27,2013-08-20 03:12:00,
2013-08-19 23:17:00,70.8,61.7,29.92,SW,236,0.0,0.0,73,0.00,,,0.00,WeatherCatV1.21B27,2013-08-20 03:17:00,
2013-08-19 23:22:00,70.7,61.6,29.92,SW,236,0.0,0.0,73,0.00,,,0.00,WeatherCatV1.21B27,2013-08-20 03:22:00,
2013-08-19 23:27:00,70.6,61.5,29.92,SW,236,0.0,0.0,73,0.00,,,0.00,WeatherCatV1.21B27,2013-08-20 03:27:00,
2013-08-19 23:32:00,70.5,61.4,29.92,SW,236,0.0,0.0,73,0.00,,,0.00,WeatherCatV1.21B27,2013-08-20 03:32:00,
2013-08-19 23:37:00,70.4,61.3,29.92,SW,236,0.0,0.0,73,0.00,,,0.00,WeatherCatV1.21B27,2013-08-20 03:37:00,
2013-08-19 23:42:00,70.3,61.6,29.92,SW,236,0.0,0.0,74,0.00,,,0.00,WeatherCatV1.21B27,2013-08-20 03:42:00,
2013-08-19 23:47:00,70.2,61.5,29.92,SW,236,0.0,0.0,74,0.00,,,0.00,WeatherCatV1.21B27,2013-08-20 03:47:00,
2013-08-19 23:52:00,70.1,61.4,29.93,SW,227,0.0,3.0,74,0.00,,,0.00,WeatherCatV1.21B27,2013-08-20 03:52:00,
2013-08-19 23:57:00,70.1,61.8,29.93,SW,234,0.0,3.0,75,0.00,,,0.00,WeatherCatV1.21B27,2013-08-20 03:57:00,